STARLINK-31171, 58834

Orbit data source: Space-Track

STARLINK-31171, 58834 is a payload satellite owned by SpaceX/Seattle (US) in LEO that was launched on Wed, 24 Jan 2024 UTC via an FALCON 9 launch vehicle from the Air Force Western Test Range (AFWTR). Payload-class satellites include a variety of spacecraft equipped with specific instruments for various scientific and technological missions. These include communications satellites like Starlink; space stations such as the ISS; scientific satellites like the Hubble; Earth observation satellites from companies like Planet Labs, Umbra, and HawkEye 360; GPS; miniature CubeSats for education and research; and military/defense satellites.

Loading next visibility...
Identifier
58834, 2024-017J
Orbit
LEO
Country
Flag of USUS
Related business
Manufacturer
SpaceX/Seattle
Mission
Operational Commercial Communications
Bus & Motor
STARLINK V2M, Unknown motor
Mass
730 kg wet, ~700 kg dry
Launch date (UTC)
2024-01-24 (2 years ago)
Launch vehicle
FALCON 9
Launch site
Air Force Western Test Range (AFWTR)
Object type
Payload
Rocket body
Debris
Shape & HBR
Box + 2 Pan, 17.7 m
Radar Cross Section
33.884 m², Large (>1 m²)

Expand to show TLE details & history
Last TLE update: 3 days ago

TLE from 3 days ago
0 STARLINK-31171
1 58834U 24017J   26170.91762599  .00013447  00000-0  46610-3 0  9995
2 58834  53.1612  65.9234 0001530  98.5046 261.6128 15.30143904136037
Epoch: 2026-06-19T22:01Z
TLE epoch observation values (Epoch: 2026-06-19T22:01:22.885Z)
Latitude
-0.00004°
Longitude
-172.5617°
Altitude
476.435 km
Speed
7.629 km/s
True Right ascension
04h 23m 41s
True Declination
0° 00' 00"
Sunlit
Object was in daylight at epoch
Visualization orbit readout
Latitude
Unknown
Longitude
Unknown
Altitude
Unknown
Speed
Unknown
Apparent Right ascension
Unknown
Apparent Declination
Unknown
Sunlit
N/A
Visualization observer readout
Local Sidereal Time
21:25:59
Azimuth
Unknown
Elevation
Unknown
Doppler factor
Unknown
Orbital elements
Apogee altitude
476.687 km
Perigee altitude
474.59 km
Semi-major axis
6,853.776 km
Eccentricity
0.00015
Inclination
53.1612°
RAAN
65.9234°
Arg. of periapsis
98.5046°
True anomaly
261.59546°
Mean anomaly
261.6128°
Eccentric anomaly
261.60413°
Mean motion
3.82515 °/min
Orbital period
94.11 mins
BSTAR
0.0004661
Loading maneuver chart data...
Computing Atmospheric mass density...
Loading historical data...
Loading historical data...
Loading historical data...
Loading historical data...
Loading historical data...
Loading historical data...
Loading historical data...

Documentation

Showing up to 5 results
|